Terminal Aerodrome Forecast
Issued by NWS Portland, OR

Home | Current Version | Previous Version | Text Only | Print | Product List | Glossary On
Versions: 1 2 3 4 5 6 7 8 9 10 11 12 13 14 15 16 17 18 19 20 21 22 23 24
000
FTUS46 KPQR 311139
TAFPDX
TAF
KPDX 311139Z 3112/0112 31003KT P6SM SCT250
     FM311700 08005KT P6SM SCT250
     FM312300 35006KT P6SM SCT250
     FM010200 33009KT P6SM SCT250
     FM010700 33005KT P6SM SCT250=

USA.gov is the U.S. government's official web portal to all federal, state and local government web resources and services.